Orbital Elements at Epoch 2459000.5 (2020-May-31.0) TDB
Reference: JPL 30 (heliocentric ecliptic J2000)
Element | Value | Uncertainty (1-sigma) | Units |
e | .1603905854032057 | 3.5667e-08 | |
a | 2.613852808778744 | 1.1098e-08 | au |
q | 2.194615426620908 | 9.3835e-08 | au |
i | 6.978723353403569 | 3.2645e-06 | deg |
node | 78.25223181413297 | 3.137e-05 | deg |
peri | 89.99791034046039 | 3.2776e-05 | deg |
M | 276.6562153578992 | 1.0591e-05 | deg |
tp | 2459357.847572234712 (2021-May-23.34757223) | 4.6254e-05 | TDB |
period | 1543.547926902179 4.23 | 9.8307e-06 2.691e-08 | d yr |
n | .233228909660422 | 1.4854e-09 | deg/d |
Q | 3.03309019093658 | 1.2878e-08 | au |
|
| | Orbit Determination Parameters
Additional Information
|